User: anonymous   Login
Location: Seagrave Observatory
(41.8500°N, 71.5833°W)
Time: 04:32:31
(UTC-04:00)
Language:

Iridium 21 - Orbit

View from above orbital plane
View from above orbital plane
View from above satellite
View from above satellite

Ground track
Ground track

The orbit data is extracted from the following two-line orbital elements,

1 25778U 99032B   16270.25402629  .00000191  00000-0  61103-4 0  9994
2 25778  86.3985 334.3178 0002142  95.3124 264.8316 14.34225393910288
Epoch (UTC): 26 September 2016 06:05:47
Eccentricity: 0.0002142
inclination: 86.3985°
perigee height: 776 km
apogee height: 779 km
right ascension of ascending node: 334.3178°
argument of perigee: 95.3124°
revolutions per day: 14.34225393
mean anomaly at epoch: 264.8316°
orbit number at epoch: 91028

The dashed part of the orbit path shows where the satellite is in the earth's shadow,  

DLR